Location: Emporia
(38.4040°N, 96.1810°W)
Time: 01:40:15
(UTC-05:00)

STARS - Visible Passes

Search period start: 22 July 2018 00:00
Search period end: 01 August 2018 00:00
Orbit: 625 x 641 km, 98.3° (Epoch: 21 July)

Date Brightness Start Highest point End Pass type
(mag) Time Alt. Az. Time Alt. Az. Time Alt. Az.
24 Jul ? 21:22:11 10° NNW 21:24:52 16° WNW 21:27:34 10° WSW visible
28 Jul ? 21:10:20 10° NNW 21:13:39 21° WNW 21:16:56 10° WSW visible
29 Jul ? 21:32:37 10° NW 21:34:40 13° WNW 21:36:42 10° W visible
